sat.trackr.live / text

‹ back to catalog

STARLINK-30938

NORAD 58389 · 2023-178R

PAYLOAD ACTIVE UNKNOWN

§ Identity

Operator
Country
US
Launch date
2023-11-20
Launch site
AFWTR
Launch vehicle
Mass (kg)
RCS (m²)

Purposes: comms

External: N2YO · Heavens-Above · Gunter

§ Orbital elements

Epoch: 2026-09-20T00:29:26.708928Z

Period
93.85 min
Inclination
53.1588°
Eccentricity
0.0001417
Mean motion
15.34381898 rev/d
Perigee alt
461.8 km
Apogee alt
463.7 km
Semi-major
6,840.9 km
B*
4.0622e-5
RAAN
175.6417°
Arg perigee
62.6528°
Mean anomaly
297.4619°
Rev number
15,968

§ Raw data

STARLINK-309381 58389U 23178R   26263.02044802  .00000996  00000+0  40622-4 0  99942 58389  53.1588 175.6417 0001417  62.6528 297.4619 15.34381898159685

JSON: /api/v1/satellites/58389 · /tle

For live sub-satellite position, see the globe view (requires WebGL).

§ Visibility from observer

Set your observer location to see the next 7 days of passes ≥ 10°. The values pass through the URL so the page stays shareable.

No JS? Fill the form by hand. The geolocation button needs JavaScript.